1508965201.2,16696,12.0,74150.5,-0.81,-2.59,-2.71,0,*6D
1508965202.41,16697,12.0,74144.8,-0.81,-2.59,-2.83,0,*61
1508965203.62,16698,12.0,74146.0,-0.81,-2.59,-2.79,0,*6B
1508965204.89,16699,12.0,74146.8,-0.79,-2.51,-2.63,0,*6E
1508965206.13,16700,12.0,74146.0,-0.79,-2.39,-2.51,0,*60
1508965207.37,16701,12.0,74146.8,-0.79,-2.39,-2.51,0,*61
1508965208.62,16702,12.0,74154.3,-0.79,-2.43,-2.51,0,*6F
1508965209.86,16703,12.0,74150.0,-0.79,-2.43,-2.55,0,*6A
1508965211.1,16704,12.0,74146.5,-0.79,-2.35,-2.51,0,*68
1508965212.32,16705,12.0,74142.3,-0.81,-2.43,-2.47,0,*68
1508965213.57,16706,12.0,74142.8,-0.81,-2.47,-2.55,0,*6C
1508965214.84,16707,12.0,74138.0,-0.79,-2.55,-2.67,0,*68
1508965216.08,16708,12.0,74134.5,-0.79,-2.75,-2.79,0,*6A
1508965217.32,16709,12.0,74134.0,-0.81,-2.59,-2.67,0,*6D
1508965218.59,16710,12.0,74132.5,-0.79,-2.55,-2.63,0,*6A
1508965219.86,16711,12.0,74126.8,-0.79,-2.63,-2.67,0,*6A
1508965221.13,16712,12.0,74132.3,-0.79,-2.67,-2.75,0,*6E
1508965222.38,16713,12.0,74138.5,-0.81,-2.55,-2.71,0,*6D
1508965223.65,16714,12.0,74140.3,-0.79,-2.51,-2.55,0,*6F
1508965224.89,16715,12.0,74142.0,-0.81,-2.59,-2.59,0,*6D
1508965226.14,16716,12.0,74146.8,-0.81,-2.47,-2.55,0,*6D
1508965227.38,16717,12.0,74154.0,-0.81,-2.55,-2.59,0,*63
1508965228.62,16718,12.0,74156.0,-0.81,-2.55,-2.59,0,*6C
1508965229.87,16719,12.0,74156.0,-0.81,-2.47,-2.55,0,*62
1508965231.09,16720,12.0,74160.3,-0.81,-2.43,-2.47,0,*6F
1508965232.31,16721,12.0,74148.8,-0.81,-2.47,-2.43,0,*6E
1508965233.52,16722,12.0,74144.5,-0.81,-2.43,-2.47,0,*6D
1508965234.77,16723,12.0,74146.0,-0.81,-2.67,-2.71,0,*6F
1508965235.98,16724,12.0,74138.0,-0.81,-2.59,-2.83,0,*68
1508965237.22,16725,12.0,74118.8,-0.79,-2.67,-2.79,0,*66
1508965238.4,16726,12.0,74124.3,-0.81,-2.79,-2.91,0,*6B
1508965239.67,16727,12.0,74122.8,-0.79,-2.67,-2.75,0,*68
1508965240.92,16728,12.0,74126.8,-0.81,-2.51,-2.67,0,*66
1508965242.16,16729,12.0,74128.3,-0.79,-2.39,-2.51,0,*6B
1508965243.37,16730,12.0,74124.8,-0.79,-2.39,-2.43,0,*60
1508965244.61,16731,12.0,74128.3,-0.79,-2.43,-2.55,0,*6B
1508965245.88,16732,12.0,74126.3,-0.79,-2.51,-2.51,0,*6F
1508965247.1,16733,12.0,74124.0,-0.77,-2.43,-2.55,0,*67
1508965248.31,16734,12.0,74126.8,-0.77,-2.43,-2.51,0,*64
1508965249.56,16735,12.0,74122.8,-0.77,-2.51,-2.55,0,*62
1508965250.8,16736,12.0,74126.8,-0.77,-2.51,-2.51,0,*65
1508965252.02,16737,12.0,74128.3,-0.77,-2.43,-2.51,0,*67
1508965253.23,16738,12.0,74130.0,-0.77,-2.43,-2.55,0,*6C
1508965254.48,16739,12.0,74130.8,-0.77,-2.55,-2.55,0,*6A
1508965255.72,16740,12.0,74140.3,-0.77,-2.63,-2.75,0,*63
1508965256.97,16741,12.0,74136.5,-0.77,-2.63,-2.75,0,*62
1508965258.23,16742,12.0,74132.8,-0.75,-2.51,-2.59,0,*6C
1508965259.47,16743,12.0,74136.0,-0.77,-2.51,-2.55,0,*63
1508965260.72,16744,12.0,74134.0,-0.77,-2.55,-2.51,0,*64
1508965261.96,16745,12.0,74138.8,-0.77,-2.51,-2.55,0,*65
1508965263.2,16746,12.0,74138.8,-0.77,-2.51,-2.55,0,*66
1508965264.42,16747,12.0,74142.5,-0.77,-2.43,-2.55,0,*64
1508965265.66,16748,12.0,74140.8,-0.77,-2.55,-2.51,0,*68
1508965266.93,16749,12.0,74136.8,-0.79,-2.51,-2.63,0,*62
1508965268.2,16750,12.0,74138.3,-0.79,-2.55,-2.63,0,*6E
1508965269.47,16751,12.0,74140.8,-0.79,-2.51,-2.63,0,*6B
1508965270.74,16752,12.0,74150.0,-0.79,-2.51,-2.63,0,*68
1508965271.99,16753,12.0,74154.8,-0.79,-2.43,-2.55,0,*6F
1508965273.23,16754,12.0,74156.8,-0.81,-2.55,-2.55,0,*68
1508965274.5,16755,12.0,74152.8,-0.79,-2.55,-2.55,0,*6E
1508965275.77,16756,12.0,74150.8,-0.79,-2.51,-2.63,0,*6C
1508965277.04,16757,12.0,74146.5,-0.79,-2.51,-2.55,0,*68
1508965278.28,16758,12.0,74148.8,-0.79,-2.39,-2.55,0,*69
1508965279.52,16759,12.0,74150.5,-0.79,-2.43,-2.55,0,*65
1508965280.76,16760,12.0,74154.3,-0.79,-2.43,-2.51,0,*6B
1508965282.01,16761,12.0,74156.8,-0.79,-2.39,-2.51,0,*67
1508965283.25,16762,12.0,74152.3,-0.81,-2.55,-2.55,0,*6D
1508965284.49,16763,12.0,74148.3,-0.79,-2.43,-2.55,0,*6C
1508965285.76,16764,12.0,74146.8,-0.79,-2.67,-2.75,0,*6F
1508965287.0,16765,12.0,74136.3,-0.79,-2.67,-2.79,0,*62
1508965288.18,16766,12.0,74128.0,-0.81,-2.79,-2.79,0,*69
1508965289.43,16767,12.0,74124.3,-0.79,-2.75,-2.87,0,*62
1508965290.66,16768,12.0,74108.3,-0.79,-2.67,-2.79,0,*6F
1508965291.9,16769,12.0,74112.0,-0.79,-2.67,-2.83,0,*6B
1508965293.11,16770,12.0,74112.5,-0.81,-2.67,-2.79,0,*61
1508965294.38,16771,12.0,74114.0,-0.79,-2.63,-2.67,0,*6C
1508965295.65,16772,12.0,74120.0,-0.79,-2.67,-2.67,0,*6B
1508965296.85,16773,12.0,74122.0,-0.81,-2.79,-2.95,0,*6F
1508965298.09,16774,12.0,74116.8,-0.79,-2.75,-2.87,0,*60
1508965299.35,16775,12.0,74120.8,-0.79,-2.67,-2.67,0,*6C
1508965300.63,16776,12.0,74116.5,-0.79,-2.63,-2.63,0,*6F
1508965301.87,16777,12.0,74134.3,-0.77,-2.63,-2.67,0,*64
1508965303.12,16778,12.0,74138.5,-0.81,-2.59,-2.67,0,*6B
1508965304.37,16779,12.0,74136.0,-0.81,-2.47,-2.55,0,*64
1508965305.61,16780,12.0,74132.3,-0.81,-2.59,-2.67,0,*6C
1508965306.88,16781,12.0,74134.8,-0.79,-2.51,-2.63,0,*66
1508965308.12,16782,12.0,74132.5,-0.81,-2.47,-2.59,0,*6C
1508965309.37,16783,12.0,74136.8,-0.81,-2.51,-2.55,0,*66
1508965310.61,16784,12.0,74136.5,-0.81,-2.55,-2.71,0,*63
1508965311.86,16785,12.0,74134.8,-0.81,-2.59,-2.67,0,*69
1508965313.08,16786,12.0,74140.3,-0.81,-2.43,-2.55,0,*60
1508965314.29,16787,12.0,74142.5,-0.81,-2.43,-2.59,0,*6D
1508965315.5,16788,12.0,74142.8,-0.79,-2.43,-2.43,0,*6E
1508965316.75,16789,12.0,74144.8,-0.81,-2.47,-2.55,0,*6B
1508965318.0,16790,12.0,74150.8,-0.81,-2.55,-2.71,0,*66
1508965319.27,16791,12.0,74148.5,-0.79,-2.55,-2.67,0,*67
1508965320.51,16792,12.0,74154.5,-0.81,-2.55,-2.59,0,*6E
1508965321.75,16793,12.0,74156.8,-0.79,-2.43,-2.51,0,*67
1508965322.97,16794,12.0,74158.5,-0.81,-2.43,-2.55,0,*63
1508965324.24,16795,12.0,74156.8,-0.79,-2.51,-2.51,0,*62
1508965325.49,16796,12.0,74160.8,-0.81,-2.55,-2.55,0,*66
1508965326.73,16797,12.0,74154.3,-0.81,-2.55,-2.67,0,*66
1508965327.97,16798,12.0,74148.0,-0.81,-2.59,-2.59,0,*68
1508965329.21,16799,12.0,74148.5,-0.81,-2.59,-2.59,0,*69
1508965330.45,16800,12.0,74152.0,-0.81,-2.59,-2.71,0,*6C
1508965331.7,16801,12.0,74152.3,-0.81,-2.59,-2.71,0,*6D
1508965332.94,16802,12.0,74148.0,-0.81,-2.59,-2.71,0,*6E
1508965334.16,16803,12.0,74146.3,-0.81,-2.43,-2.47,0,*61
1508965335.38,16804,12.0,74146.5,-0.81,-2.43,-2.47,0,*66
1508965336.59,16805,12.0,74140.0,-0.79,-2.43,-2.43,0,*64
1508965337.83,16806,12.0,74130.5,-0.81,-2.55,-2.67,0,*61
1508965339.08,16807,12.0,74130.5,-0.81,-2.55,-2.59,0,*6D
1508965340.32,16808,12.0,74132.0,-0.81,-2.55,-2.59,0,*62
1508965341.56,16809,12.0,74136.5,-0.81,-2.47,-2.59,0,*60
1508965342.81,16810,12.0,74144.3,-0.81,-2.59,-2.67,0,*6A
1508965344.05,16811,12.0,74148.3,-0.81,-2.59,-2.67,0,*6B
1508965345.29,16812,12.0,74142.5,-0.81,-2.55,-2.67,0,*64
1508965346.54,16813,12.0,74136.5,-0.81,-2.59,-2.55,0,*68
1508965347.78,16814,12.0,74132.8,-0.81,-2.47,-2.59,0,*6C
1508965349.03,16815,12.0,74138.5,-0.83,-2.43,-2.55,0,*67
1508965350.3,16816,12.0,74136.5,-0.83,-2.55,-2.59,0,*6F
1508965351.54,16817,12.0,74140.5,-0.81,-2.47,-2.59,0,*6F
1508965352.79,16818,12.0,74154.5,-0.81,-2.55,-2.55,0,*6F
1508965354.03,16819,12.0,74144.8,-0.81,-2.55,-2.55,0,*6E
1508965355.28,16820,12.0,74148.8,-0.81,-2.47,-2.55,0,*67
1508965356.53,16821,12.0,74140.3,-0.81,-2.47,-2.47,0,*65
1508965357.8,16822,12.0,74136.5,-0.83,-2.59,-2.71,0,*6E
1508965359.06,16823,12.0,74132.3,-0.85,-2.59,-2.75,0,*6D
1508965360.33,16824,12.0,74138.8,-0.83,-2.59,-2.67,0,*6F
1508965361.6,16825,12.0,74134.5,-0.83,-2.59,-2.67,0,*6E
1508965362.87,16826,12.0,74134.3,-0.83,-2.59,-2.71,0,*6A
1508965364.14,16827,12.0,74138.0,-0.83,-2.55,-2.55,0,*61
1508965365.41,16828,12.0,74146.5,-0.83,-2.59,-2.67,0,*63
1508965366.68,16829,12.0,74150.8,-0.83,-2.59,-2.71,0,*65
1508965367.95,16830,12.0,74146.5,-0.83,-2.55,-2.59,0,*6B
1508965369.22,16831,12.0,74144.5,-0.83,-2.47,-2.59,0,*69
1508965370.48,16832,12.0,74134.3,-0.85,-2.71,-2.75,0,*67
1508965371.76,16833,12.0,74138.3,-0.83,-2.47,-2.63,0,*62
1508965373.01,16834,12.0,74144.5,-0.83,-2.43,-2.47,0,*67
1508965374.25,16835,12.0,74146.5,-0.83,-2.43,-2.47,0,*66
1508965375.53,16836,12.0,74144.5,-0.83,-2.47,-2.55,0,*62
1508965376.77,16837,12.0,74148.0,-0.83,-2.43,-2.55,0,*67
1508965378.05,16838,12.0,74150.5,-0.83,-2.47,-2.55,0,*6C
1508965379.29,16839,12.0,74150.5,-0.83,-2.43,-2.55,0,*69
1508965380.56,16840,12.0,74150.3,-0.83,-2.55,-2.55,0,*60
1508965381.83,16841,12.0,74142.5,-0.85,-2.55,-2.63,0,*62
1508965383.1,16842,12.0,74136.5,-0.83,-2.55,-2.59,0,*6E
1508965384.37,16843,12.0,74140.8,-0.83,-2.55,-2.55,0,*63
1508965385.64,16844,12.0,74144.8,-0.83,-2.47,-2.55,0,*67
1508965386.92,16845,12.0,74150.5,-0.83,-2.47,-2.59,0,*6A
1508965388.18,16846,12.0,74146.3,-0.85,-2.51,-2.59,0,*68
1508965389.43,16847,12.0,74148.8,-0.85,-2.59,-2.59,0,*61
1508965390.7,16848,12.0,74150.8,-0.85,-2.59,-2.63,0,*67
1508965391.95,16849,12.0,74150.3,-0.85,-2.59,-2.75,0,*61
1508965393.22,16850,12.0,74150.5,-0.85,-2.51,-2.71,0,*65
1508965394.48,16851,12.0,74150.0,-0.85,-2.59,-2.59,0,*66
1508965395.74,16852,12.0,74148.5,-0.85,-2.51,-2.63,0,*64
1508965397.01,16853,12.0,74148.8,-0.83,-2.55,-2.55,0,*62
1508965398.27,16854,12.0,74144.3,-0.85,-2.59,-2.63,0,*6A
1508965399.55,16855,12.0,74144.0,-0.83,-2.55,-2.55,0,*64
1508965400.76,16856,12.0,74134.3,-0.83,-2.31,-2.43,0,*62
1508965402.0,16857,12.0,74128.0,-0.85,-2.35,-2.47,0,*65
1508965403.27,16858,12.0,74124.0,-0.83,-2.47,-2.59,0,*66
1508965404.53,16859,12.0,74134.0,-0.85,-2.51,-2.59,0,*66
1508965405.8,16860,12.0,74132.5,-0.85,-2.51,-2.63,0,*65
1508965407.07,16861,12.0,74134.5,-0.83,-2.55,-2.59,0,*6F
1508965408.34,16862,12.0,74132.0,-0.83,-2.55,-2.59,0,*6C
1508965409.61,16863,12.0,74146.8,-0.83,-2.47,-2.55,0,*62
1508965410.88,16864,12.0,74142.0,-0.83,-2.47,-2.59,0,*69
1508965412.15,16865,12.0,74142.3,-0.83,-2.55,-2.59,0,*6B
1508965413.42,16866,12.0,74154.5,-0.85,-2.59,-2.63,0,*6B
1508965414.69,16867,12.0,74162.3,-0.83,-2.47,-2.59,0,*6A
1508965415.96,16868,12.0,74160.8,-0.83,-2.55,-2.71,0,*6C
1508965417.23,16869,12.0,74158.3,-0.83,-2.47,-2.59,0,*64
1508965418.48,16870,12.0,74154.5,-0.83,-2.43,-2.55,0,*64
1508965419.75,16871,12.0,74160.3,-0.83,-2.47,-2.59,0,*6D
1508965420.99,16872,12.0,74162.8,-0.83,-2.43,-2.55,0,*66
1508965422.22,16873,12.0,74168.0,-0.83,-2.31,-2.39,0,*68
1508965423.44,16874,12.0,74160.8,-0.83,-2.27,-2.31,0,*60
1508965424.65,16875,12.0,74160.8,-0.79,-2.31,-2.43,0,*66
1508965425.87,16876,12.0,74142.0,-0.79,-2.23,-2.39,0,*6B
1508965427.11,16877,12.0,74136.0,-0.79,-2.39,-2.51,0,*6F
1508965428.35,16878,12.0,74134.3,-0.79,-2.43,-2.63,0,*6C
1508965429.59,16879,12.0,74132.8,-0.79,-2.39,-2.55,0,*65
1508965430.83,16880,12.0,74134.0,-0.75,-2.39,-2.59,0,*63
1508965432.06,16881,12.0,74130.3,-0.75,-2.39,-2.63,0,*6B
1508965433.33,16882,12.0,74126.8,-0.75,-2.51,-2.59,0,*6F
1508965434.6,16883,12.0,74130.8,-0.75,-2.47,-2.59,0,*69
1508965435.87,16884,12.0,74134.5,-0.75,-2.51,-2.63,0,*60
1508965437.11,16885,12.0,74132.3,-0.73,-2.47,-2.59,0,*69
1508965438.35,16886,12.0,74132.8,-0.73,-2.47,-2.63,0,*63
1508965439.59,16887,12.0,74126.8,-0.73,-2.51,-2.63,0,*65
1508965440.83,16888,12.0,74128.5,-0.71,-2.43,-2.55,0,*6E
1508965442.07,16889,12.0,74132.0,-0.73,-2.51,-2.63,0,*6B
1508965443.31,16890,12.0,74134.8,-0.73,-2.47,-2.55,0,*61
1508965444.55,16891,12.0,74136.8,-0.73,-2.47,-2.59,0,*6C
1508965445.8,16892,12.0,74140.5,-0.73,-2.63,-2.75,0,*67
1508965447.04,16893,12.0,74144.3,-0.73,-2.63,-2.71,0,*62
1508965448.28,16894,12.0,74144.8,-0.73,-2.51,-2.63,0,*67
1508965449.52,16895,12.0,74146.3,-0.73,-2.59,-2.63,0,*6E
1508965450.75,16896,12.0,74146.0,-0.73,-2.51,-2.59,0,*6C
1508965451.99,16897,12.0,74140.8,-0.73,-2.47,-2.59,0,*6A
1508965453.24,16898,12.0,74142.8,-0.73,-2.47,-2.47,0,*6A
1508965454.47,16899,12.0,74144.8,-0.73,-2.51,-2.59,0,*63
1508965455.68,16900,12.0,74148.0,-0.73,-2.35,-2.47,0,*6F
1508965456.87,16901,12.0,74148.3,-0.73,-2.35,-2.39,0,*67
1508965458.05,16902,12.0,74146.0,-0.73,-2.39,-2.39,0,*68
1508965459.24,16903,12.0,74144.0,-0.73,-2.35,-2.39,0,*65
1508965460.45,16904,12.0,74146.3,-0.75,-2.31,-2.35,0,*6C
1508965461.67,16905,12.0,74140.3,-0.75,-2.31,-2.35,0,*6D
1508965462.89,16906,12.0,74142.0,-0.75,-2.23,-2.23,0,*6A
1508965464.11,16907,12.0,74150.3,-0.75,-2.19,-2.23,0,*62
1508965465.33,16908,12.0,74146.8,-0.75,-2.31,-2.35,0,*60
1508965466.54,16909,12.0,74146.3,-0.75,-2.23,-2.31,0,*66
1508965467.73,16910,12.0,74144.0,-0.73,-2.31,-2.31,0,*6B
1508965468.92,16911,12.0,74140.5,-0.73,-2.39,-2.39,0,*6A
1508965470.13,16912,12.0,74146.8,-0.73,-2.39,-2.47,0,*60
1508965471.37,16913,12.0,74146.8,-0.73,-2.47,-2.59,0,*67
1508965472.6,16914,11.94,74142.3,-0.73,-2.47,-2.59,0,*60
1508965473.84,16915,12.0,74152.0,-0.73,-2.47,-2.59,0,*61
1508965475.08,16916,12.0,74150.3,-0.73,-2.51,-2.59,0,*65
1508965476.35,16917,12.0,74152.0,-0.75,-2.51,-2.63,0,*6B
1508965477.62,16918,12.0,74146.3,-0.75,-2.51,-2.63,0,*64
1508965478.83,16919,12.0,74124.3,-0.73,-2.75,-2.87,0,*6F
1508965480.07,16920,12.0,74108.5,-0.73,-2.71,-2.75,0,*6C
1508965481.29,16921,12.0,74140.3,-0.75,-2.83,-2.95,0,*68
1508965482.53,16922,12.0,74134.0,-0.73,-2.63,-2.75,0,*6D
1508965483.79,16923,12.0,74122.8,-0.71,-2.55,-2.59,0,*65
1508965485.03,16924,12.0,74124.5,-0.73,-2.63,-2.75,0,*6B
1508965486.25,16925,12.0,74146.0,-0.73,-2.63,-2.83,0,*63
1508965487.51,16926,12.0,74148.0,-0.71,-2.59,-2.71,0,*66
1508965488.75,16927,12.0,74154.5,-0.71,-2.71,-2.83,0,*60
1508965489.96,16928,12.0,74158.8,-0.71,-2.79,-3.03,0,*6E
1508965491.2,16929,12.0,74160.0,-0.71,-2.71,-2.95,0,*69
1508965492.47,16930,12.0,74154.3,-0.67,-2.55,-2.75,0,*6E
1508965493.66,16931,12.0,74154.5,-0.69,-2.79,-3.03,0,*6F
1508965494.88,16932,12.0,74140.8,-0.63,-2.87,-2.95,0,*69
1508965496.09,16933,12.0,74136.0,-0.63,-2.87,-2.99,0,*64
1508965497.31,16934,12.0,74134.8,-0.67,-2.99,-3.07,0,*6E
1508965498.53,16935,12.0,74140.5,-0.63,-2.87,-2.99,0,*62
1508965499.71,16936,12.0,74142.0,-0.69,-2.79,-2.79,0,*64
1508965500.95,16937,12.0,74142.8,-0.67,-2.75,-2.79,0,*67
1508965502.14,16938,12.0,74142.3,-0.69,-2.83,-2.95,0,*6D
1508965503.33,16939,12.0,74138.3,-0.69,-2.79,-2.83,0,*6E
1508965504.52,16940,12.0,74138.0,-0.69,-2.95,-2.95,0,*65
1508965505.72,16941,12.0,74130.5,-0.69,-2.95,-2.95,0,*64
1508965506.91,16942,12.0,74126.5,-0.69,-2.79,-2.95,0,*65
1508965508.12,16943,12.0,74130.8,-0.69,-2.67,-2.83,0,*6C
1508965509.31,16944,12.0,74130.3,-0.69,-2.79,-2.83,0,*64
1508965510.55,16945,12.0,74128.8,-0.67,-2.67,-2.79,0,*61
1508965511.82,16946,12.0,74126.8,-0.67,-2.63,-2.63,0,*6D
1508965513.03,16947,12.0,74126.0,-0.69,-2.71,-2.83,0,*6F
1508965514.24,16948,12.0,74126.0,-0.69,-2.67,-2.79,0,*62
1508965515.48,16949,12.0,74126.8,-0.69,-2.59,-2.67,0,*61
1508965516.72,16950,12.0,74130.3,-0.69,-2.59,-2.67,0,*69
1508965517.9,16951,12.0,74130.5,-0.69,-2.83,-2.91,0,*66
1508965519.08,16952,12.0,74128.0,-0.69,-2.91,-3.03,0,*6C
1508965520.29,16953,12.0,74132.0,-0.69,-2.67,-2.79,0,*68
1508965521.48,16954,12.0,74134.8,-0.69,-2.79,-2.83,0,*65
1508965522.72,16955,12.0,74140.5,-0.69,-2.59,-2.67,0,*6C
1508965523.96,16956,12.0,74148.5,-0.69,-2.67,-2.67,0,*62
1508965525.19,16957,12.0,74150.8,-0.69,-2.59,-2.59,0,*63
1508965526.43,16958,12.0,74152.5,-0.69,-2.59,-2.71,0,*66
1508965527.7,16959,12.0,74154.0,-0.67,-2.63,-2.75,0,*64
1508965528.95,16960,12.0,74148.3,-0.69,-2.55,-2.67,0,*66
1508965530.19,16961,12.0,74158.3,-0.69,-2.55,-2.55,0,*66
1508965531.43,16962,12.0,74160.3,-0.69,-2.55,-2.67,0,*64
1508965532.7,16963,12.0,74156.3,-0.67,-2.63,-2.67,0,*6E
1508965533.97,16964,12.0,74152.3,-0.67,-2.67,-2.71,0,*6A
1508965535.21,16965,12.0,74146.0,-0.69,-2.59,-2.67,0,*6F
1508965536.48,16966,12.0,74146.3,-0.67,-2.55,-2.67,0,*6E
1508965537.75,16967,12.0,74142.0,-0.67,-2.63,-2.75,0,*69
1508965538.99,16968,12.0,74138.0,-0.67,-2.43,-2.55,0,*66
1508965540.2,16969,12.0,74150.8,-0.63,-2.19,-2.27,0,*69
1508965541.45,16970,12.0,74148.5,-0.61,-1.99,-2.11,0,*6D
1508965542.69,16971,12.0,74132.8,-0.61,-2.07,-2.11,0,*68
1508965543.91,16972,12.0,74136.0,-0.61,-2.11,-2.19,0,*64
1508965545.12,16973,12.0,74118.8,-0.61,-2.07,-2.19,0,*62
1508965546.36,16974,11.94,74112.0,-0.57,-1.83,-1.95,0,*68
1508965547.57,16975,12.0,74122.0,-0.57,-2.07,-2.19,0,*61
1508965548.76,16976,12.0,74132.5,-0.57,-2.23,-2.31,0,*6E
1508965549.98,16977,12.0,74128.8,-0.55,-2.19,-2.31,0,*64
1508965551.19,16978,12.0,74128.5,-0.55,-2.27,-2.39,0,*6E
1508965552.4,16979,12.0,74124.5,-0.53,-2.27,-2.51,0,*67
1508965553.59,16980,12.0,74122.5,-0.53,-2.43,-2.79,0,*69
1508965554.83,16981,12.0,74126.3,-0.53,-2.51,-2.55,0,*65
1508965556.04,16982,12.0,74134.8,-0.53,-2.43,-2.63,0,*60
1508965557.32,16983,12.0,74138.0,-0.51,-2.47,-2.63,0,*67
1508965558.59,16984,12.0,74142.0,-0.51,-2.47,-2.59,0,*69
1508965559.85,16985,12.0,74142.0,-0.51,-2.47,-2.59,0,*68
1508965561.13,16986,12.0,74136.3,-0.51,-2.51,-2.63,0,*65
1508965562.39,16987,12.0,74132.8,-0.51,-2.51,-2.59,0,*6D
1508965563.66,16988,12.0,74134.0,-0.51,-2.51,-2.51,0,*6A
1508965564.93,16989,12.0,74136.5,-0.51,-2.59,-2.63,0,*62
1508965566.18,16990,12.0,74132.3,-0.49,-2.71,-2.71,0,*6A
1508965567.45,16991,12.0,74140.0,-0.51,-2.63,-2.75,0,*65
1508965568.71,16992,12.0,74136.3,-0.51,-2.59,-2.59,0,*61
1508965569.98,16993,12.0,74136.0,-0.51,-2.59,-2.59,0,*60
1508965571.25,16994,12.0,74142.0,-0.51,-2.63,-2.63,0,*67
1508965572.52,16995,12.0,74144.3,-0.51,-2.59,-2.71,0,*6C
1508965573.79,16996,12.0,74146.5,-0.51,-2.71,-2.75,0,*61
1508965575.0,16997,12.0,74152.3,-0.51,-2.83,-2.83,0,*64
1508965576.21,16998,12.0,74152.5,-0.51,-2.87,-3.11,0,*65
1508965577.43,16999,12.0,74156.3,-0.51,-2.87,-2.87,0,*6A
1508965578.7,17000,12.0,74146.0,-0.51,-2.71,-2.71,0,*62
1508965579.97,17001,12.0,74146.8,-0.51,-2.63,-2.71,0,*60
1508965581.24,17002,12.0,74150.8,-0.51,-2.75,-2.75,0,*60
1508965582.46,17003,12.0,74152.3,-0.51,-2.87,-2.99,0,*6E
1508965583.64,17004,12.0,74156.5,-0.53,-2.91,-3.03,0,*6E
1508965584.82,17005,12.0,74154.8,-0.53,-2.91,-2.91,0,*65
1508965586.01,17006,12.0,74158.5,-0.49,-2.91,-3.03,0,*67
1508965587.23,17007,12.0,74162.3,-0.51,-2.87,-3.03,0,*68
1508965588.5,17008,12.0,74162.8,-0.51,-2.63,-2.63,0,*6A
1508965589.71,17009,12.0,74160.3,-0.51,-2.23,-2.27,0,*6F
1508965590.9,17010,12.0,74148.8,-0.49,-2.23,-2.35,0,*6D
1508965592.15,17011,12.0,74138.3,-0.49,-2.51,-2.75,0,*6D
1508965593.4,17012,12.0,74134.5,-0.45,-2.47,-2.67,0,*66
1508965594.61,17013,12.0,74138.0,-0.45,-2.71,-2.79,0,*6D
1508965595.81,17014,12.0,74136.8,-0.45,-2.95,-2.95,0,*62
1508965597.0,17015,12.0,74134.0,-0.45,-2.79,-3.11,0,*6C
1508965598.18,17016,12.0,74128.8,-0.45,-3.19,-3.23,0,*69
1508965599.4,17017,12.0,74134.5,-0.43,-3.79,-3.83,0,*62
1508965600.66,17018,12.0,74132.5,-0.39,-3.59,-3.67,0,*68
1508965601.9,17019,12.0,74122.8,-0.43,-4.45,-5.19,0,*61
1508965603.14,17020,12.0,74132.5,-0.39,-7.15,-7.77,0,*6A
1508965604.38,17021,12.0,74114.5,-0.39,-7.31,-7.83,0,*66
1508965605.62,17022,12.0,74116.8,-0.39,-7.69,-8.21,0,*6F
1508965606.89,17023,12.0,74116.0,-0.39,-7.57,-7.99,0,*6F
1508965608.13,17024,12.0,74106.3,-0.39,-7.57,-8.21,0,*64
1508965609.35,17025,12.0,74102.0,-0.35,-7.53,-8.41,0,*6B
1508965610.59,17026,12.0,74080.0,-0.35,-7.61,-8.37,0,*68
1508965611.83,17027,12.0,74096.3,-0.35,-7.77,-8.33,0,*6A
1508965613.06,17028,12.0,74102.3,-0.35,-7.91,-8.63,0,*68
1508965614.32,17029,12.0,74098.0,-0.35,-7.39,-8.03,0,*6D
1508965615.56,17030,12.0,74102.0,-0.33,-7.01,-7.65,0,*67
1508965616.78,17031,12.0,74108.0,-0.31,-7.11,-7.87,0,*69
1508965618.05,17032,12.0,74106.8,-0.31,-6.97,-7.57,0,*68
1508965619.29,17033,12.0,74110.5,-0.29,-7.39,-7.95,0,*6B
1508965620.5,17034,12.0,74116.5,-0.29,-7.65,-8.25,0,*61
1508965621.71,17035,12.0,74126.5,-0.27,-7.83,-8.63,0,*64
1508965622.94,17036,12.0,74124.8,-0.27,-7.95,-8.67,0,*64
1508965624.16,17037,12.0,74128.5,-0.25,-7.91,-8.85,0,*6F
1508965625.37,17038,12.0,74132.5,-0.23,-8.21,-9.01,0,*6F
1508965626.6,17039,12.0,74136.5,-0.23,-8.29,-9.15,0,*63
1508965627.79,17040,11.94,74128.0,-0.25,-8.29,-9.23,0,*6E
1508965629.01,17041,12.0,74128.0,-0.23,-8.45,-9.27,0,*67
1508965630.21,17042,12.0,74128.0,-0.23,-8.41,-9.31,0,*67
1508965631.48,17043,12.0,74126.3,-0.23,-8.51,-9.41,0,*60
1508965632.69,17044,12.0,74120.0,-0.23,-8.45,-9.27,0,*62
1508965633.93,17045,12.0,74116.5,-0.23,-8.51,-9.31,0,*61
1508965635.12,17046,12.0,74134.5,-0.21,-8.45,-9.27,0,*62
1508965636.32,17047,12.0,74132.3,-0.23,-8.59,-9.31,0,*6B
1508965637.56,17048,12.0,74124.0,-0.23,-8.59,-9.45,0,*67
1508965638.8,17049,12.0,74130.5,-0.23,-8.59,-9.45,0,*66
1508965640.04,17050,12.0,74132.8,-0.23,-8.51,-9.27,0,*62
1508965641.25,17051,12.0,74134.5,-0.21,-8.59,-9.37,0,*68
1508965642.47,17052,11.94,74128.0,-0.21,-8.55,-9.37,0,*67
1508965643.68,17053,12.0,74130.5,-0.21,-8.59,-9.41,0,*6B
1508965644.89,17054,12.0,74134.5,-0.21,-8.59,-9.37,0,*6D
1508965646.12,17055,12.0,74130.5,-0.21,-8.71,-9.53,0,*64
1508965647.31,17056,12.0,74134.3,-0.21,-8.85,-9.75,0,*68
1508965648.53,17057,12.0,74124.8,-0.23,-8.85,-9.71,0,*6F
1508965649.75,17058,12.0,74130.3,-0.23,-8.89,-9.93,0,*60
1508965651.01,17059,12.0,74124.8,-0.23,-9.15,-10.19,0,*5F
1508965652.21,17060,12.0,74128.0,-0.21,-8.97,-10.23,0,*55
1508965653.4,17061,12.0,74110.0,-0.21,-9.05,-9.93,0,*6D
1508965654.58,17062,12.0,74118.0,-0.21,-8.97,-9.89,0,*6F
1508965655.79,17063,12.0,74126.5,-0.21,-9.05,-10.01,0,*5C
1508965656.99,17064,12.0,74130.5,-0.21,-9.19,-10.15,0,*53
1508965658.22,17065,12.0,74140.5,-0.21,-9.11,-10.01,0,*5F
1508965659.41,17066,12.0,74132.5,-0.21,-9.05,-9.89,0,*61
1508965660.63,17067,12.0,74138.8,-0.21,-9.11,-10.05,0,*59
1508965661.86,17068,12.0,74138.0,-0.21,-9.11,-10.01,0,*52
1508965663.06,17069,12.0,74130.3,-0.21,-9.19,-10.15,0,*5E
1508965664.26,17070,12.0,74126.0,-0.21,-9.23,-10.15,0,*5F
1508965665.46,17071,12.0,74134.8,-0.21,-9.27,-10.23,0,*5F
1508965666.68,17072,12.0,74138.0,-0.23,-9.31,-10.27,0,*5D
1508965667.93,17073,12.0,74140.5,-0.23,-9.41,-10.27,0,*5B
1508965669.19,17074,12.0,74140.8,-0.23,-9.41,-10.35,0,*5F
1508965670.44,17075,12.0,74150.3,-0.23,-9.45,-10.35,0,*5A
1508965671.66,17076,12.0,74138.3,-0.21,-9.41,-10.31,0,*5B
1508965672.89,17077,12.0,74130.8,-0.21,-9.41,-10.35,0,*5E
1508965674.11,17078,12.0,74124.5,-0.21,-9.53,-10.35,0,*52
1508965675.35,17079,12.0,74116.0,-0.23,-9.57,-10.49,0,*5E
1508965676.57,17080,12.0,74114.3,-0.23,-9.67,-10.49,0,*5B
1508965677.83,17081,12.0,74114.8,-0.23,-9.57,-10.41,0,*51
1508965679.05,17082,12.0,74118.5,-0.23,-9.79,-10.53,0,*5D
1508965680.27,17083,12.0,74116.8,-0.23,-9.79,-10.53,0,*5C
1508965681.46,17084,12.0,74132.5,-0.21,-9.89,-10.49,0,*5D
1508965682.68,17085,12.0,74122.5,-0.21,-10.01,-10.71,0,*6F
1508965683.89,17086,12.0,74118.0,-0.21,-9.93,-10.75,0,*5B
1508965685.11,17087,11.94,74100.0,-0.21,-9.93,-10.63,0,*5D
1508965686.35,17088,12.0,74102.8,-0.17,-9.93,-10.71,0,*54
1508965687.57,17089,11.94,74112.8,-0.17,-9.89,-10.85,0,*55
1508965688.78,17090,12.0,74114.0,-0.17,-9.93,-10.85,0,*56
1508965690.01,17091,12.0,74122.8,-0.17,-10.01,-10.85,0,*64
1508965691.23,17092,12.0,74126.5,-0.17,-10.01,-10.85,0,*67
1508965692.45,17093,12.0,74130.5,-0.17,-10.05,-11.01,0,*6F
1508965693.68,17094,12.0,74134.0,-0.17,-10.05,-11.01,0,*68
1508965694.86,17095,12.0,74138.3,-0.21,-10.05,-10.85,0,*61
1508965696.05,17096,12.0,74134.3,-0.21,-10.05,-11.01,0,*6F
1508965697.29,17097,12.0,74126.5,-0.17,-10.15,-11.15,0,*6F
1508965698.48,17098,12.0,74130.0,-0.21,-10.05,-10.89,0,*60
1508965699.7,17099,12.0,74128.5,-0.17,-9.93,-10.97,0,*5C
1508965700.94,17100,12.0,74128.3,-0.17,-10.15,-10.97,0,*6B
1508965702.18,17101,12.0,74130.5,-0.17,-10.15,-10.97,0,*6A
1508965703.39,17102,12.0,74128.8,-0.21,-10.19,-10.97,0,*60
1508965704.65,17103,12.0,74138.8,-0.17,-10.19,-11.07,0,*6C
1508965705.87,17104,11.94,74132.0,-0.17,-10.05,-10.89,0,*61
1508965707.11,17105,12.0,74134.3,-0.17,-10.19,-11.19,0,*65
1508965708.34,17106,12.0,74132.8,-0.17,-10.19,-11.15,0,*6A
1508965709.57,17107,12.0,74138.0,-0.21,-10.35,-11.29,0,*6F
1508965710.81,17108,12.0,74132.0,-0.17,-10.19,-11.15,0,*64
1508965712.0,17109,12.0,74130.8,-0.21,-10.19,-11.15,0,*60
1508965713.24,17110,12.0,74132.8,-0.17,-10.19,-11.15,0,*6D
1508965714.43,17111,12.0,74136.5,-0.21,-10.23,-11.19,0,*6C
1508965715.66,17112,12.0,74132.0,-0.17,-10.23,-11.19,0,*6A
1508965716.88,17113,12.0,74128.5,-0.21,-10.35,-11.33,0,*61
1508965718.14,17114,12.0,74128.5,-0.17,-10.31,-11.29,0,*6C
1508965719.36,17115,12.0,74128.0,-0.21,-10.35,-11.33,0,*67